Location: Long Sault Conservation Area
(44.0496°N, 78.7419°W)
Time: 08:18:10
(UTC-05:00)

Daily predictions for brighter satellites

Satellite Brightness Start Highest point End
(mag) Time Altitude Azimuth Time Altitude Azimuth Time Altitude Azimuth
CENTAUR R/B 2.8 16:59:20 10° SW 17:05:24 78° NW 17:12:25 10° NE
IDEFIX/ARIANE 42P 3.4 17:04:42 10° S 17:09:50 59° W 17:15:00 10° NNW
Cosmos 1725 Rocket 4.0 17:04:00 10° S 17:10:15 75° E 17:16:30 10° NNE
Cosmos 1633 4.1 17:08:01 10° NNE 17:10:30 17° ENE 17:12:59 10° ESE
Aureole 3 4.2 17:06:49 10° N 17:11:35 88° W 17:17:40 10° S
BREEZE-M R/B 2.0 17:10:06 10° WNW 17:12:33 61° NNE 17:15:59 10° ESE
COSMOS 2406 4.0 17:08:58 10° NNW 17:14:37 59° WSW 17:20:11 10° S
Meteor 2-12 Rocket 4.4 17:10:44 10° S 17:16:47 73° E 17:22:50 10° NNE
ERBS 3.6 17:13:30 10° WNW 17:16:47 45° SW 17:20:03 10° SSE
COSMO-SKYMED 1 4.2 17:15:23 10° NE 17:18:03 16° E 17:20:43 10° SE
MSX 4.1 17:12:31 10° S 17:18:17 77° WSW 17:24:06 10° NNW
YAOGAN 1 3.4 17:15:53 10° SE 17:19:32 28° ENE 17:23:13 10° N
CSL-04 Debris 4.2 17:16:54 10° SSE 17:22:15 65° ENE 17:27:37 10° N
Cosmos 2346 Rocket 4.4 17:20:44 10° N 17:26:53 70° E 17:33:02 10° SSE
Cosmos 1833 Rocket 3.2 17:22:54 10° NNW 17:28:09 38° ENE 17:33:21 10° SE
BREEZE-M DEB (TANK) 3.6 17:26:39 10° S 17:28:16 18° SE 17:29:58 11° E
Tsikada Rocket 4.1 17:23:58 10° N 17:30:09 82° W 17:36:19 10° S
USA 161 3.6 17:32:33 10° NNW 17:34:04 18° WNW 17:35:37 10° WSW
Meteor 1-14 Rocket 4.2 17:28:34 10° N 17:34:15 72° ENE 17:39:47 10° SSE
Cosmos 1844 4.4 17:30:18 10° SW 17:35:59 57° WNW 17:41:43 10° NNE
Cosmos 2297 4.5 17:31:40 10° SSE 17:36:40 32° ESE 17:41:42 10° NE
Cosmos 2221 Rocket 4.5 17:36:06 10° SSE 17:39:50 27° E 17:43:35 10° NNE
Cosmos 2278 Rocket 2.2 17:34:17 10° SSW 17:39:57 80° ESE 17:45:40 10° NNE
Cosmos 1703 Rocket 3.9 17:36:08 10° SSE 17:40:22 44° E 17:44:37 10° NNE
CORIOLIS 4.1 17:36:06 10° SSE 17:41:32 74° ENE 17:46:58 10° N
CZ-2C R/B 4.1 17:37:48 10° SSW 17:42:28 39° W 17:47:17 10° NNW
Cosmos 1763 Rocket 4.0 17:43:48 10° NNW 17:48:57 64° WSW 17:54:01 10° S
Meteor 1-26 Rocket 4.4 17:44:27 10° SSW 17:50:01 77° W 17:55:34 10° N
IRS-1A Rocket 4.3 17:45:20 10° SSE 17:51:07 73° ENE 17:56:48 10° N
Meteor 1-28 Rocket 3.0 17:49:13 10° NNE 17:52:56 74° E 17:56:38 10° S
Cosmos 44 Rocket 3.7 17:49:18 10° NNW 17:53:53 41° NE 17:58:34 10° ESE
CZ-2C R/B 3.6 17:50:00 10° NNE 17:54:28 68° ESE 17:59:00 10° S
Okean 2 Rocket 3.7 17:51:33 10° N 17:55:44 36° ENE 17:59:54 10° SE
Cosmos 1606 2.6 17:57:15 10° S 18:00:59 63° E 18:04:44 10° NNE
Cosmos 292 Rocket 4.1 17:56:55 10° N 18:01:25 40° ENE 18:05:53 10° SE
Cosmos 1441 Rocket 4.3 17:58:23 10° SE 18:01:36 24° E 18:01:47 24° E
Cosmos 405 3.8 18:00:25 10° NNE 18:03:37 29° ENE 18:06:47 10° SE
Cosmos 1908 Rocket 3.8 17:59:47 10° NNW 18:04:07 71° W 18:08:24 10° S
Cosmos 1464 Rocket 4.0 17:59:10 10° SSE 18:05:04 54° E 18:11:03 10° NNE
Landsat 4 3.6 18:01:24 10° NNE 18:05:12 72° ESE 18:09:00 10° S
Lacrosse 5 3.7 18:01:58 10° NW 18:05:39 20° N 18:08:26 13° NNE
SKYMED 2 3.7 18:02:11 10° NNE 18:06:25 49° E 18:10:38 10° S
COSMOS 2455 3.8 18:02:04 10° WSW 18:07:47 45° NW 18:13:34 10° NNE
Cosmos 1484 Rocket 4.1 18:04:19 10° S 18:08:01 43° W 18:11:48 10° NNW
MTI 3.7 18:07:22 19° NNE 18:09:35 65° ESE 18:12:46 10° S
CZ-4 R/B 1.9 18:05:52 10° S 18:09:40 59° WSW 18:13:29 10° NNW
SL-27 R/B 3.1 18:07:11 10° NNW 18:10:28 54° WSW 18:13:43 10° S
EO 1 Del DPAF 3.4 18:08:14 18° NNE 18:10:52 50° E 18:14:34 10° S
MOS 1 4.2 18:06:34 10° SSE 18:12:14 71° ENE 18:17:56 10° N
Cosmos 540 Rocket 3.4 18:07:25 10° NNW 18:12:38 81° ENE 18:17:46 10° SSE
USA 234 3.7 18:11:19 22° ENE 18:15:05 42° SE 18:21:12 10° SSW
METEOR-M 4.0 18:09:53 10° SSE 18:15:13 83° ENE 18:20:35 10° NNW
MONITOR-E 4.0 18:13:20 10° SSE 18:16:21 65° ENE 18:19:24 10° N
CZ-4 R/B 4.5 18:12:18 10° S 18:16:28 82° W 18:20:39 10° NNW
Cosmos 44 3.1 18:13:21 10° NNW 18:18:01 69° NE 18:22:41 11° SE
Cosmos 2082 Rocket 2.1 18:12:51 10° NNW 18:18:36 88° ENE 18:24:15 10° SSE
Cosmos 968 Rocket 4.2 18:14:17 10° SSE 18:18:47 31° E 18:19:33 30° E
Cosmos 1503 Rocket 3.9 18:13:58 10° SSW 18:19:13 77° ESE 18:23:43 14° NNE
Meteor 2-6 Rocket 4.0 18:17:51 10° S 18:23:16 73° E 18:28:52 10° NNE
ERS-2 2.5 18:23:33 10° S 18:27:12 66° WSW 18:30:53 10° NNW
Cosmos 1602 3.6 18:23:28 10° N 18:27:17 64° E 18:31:07 10° SSE
BREEZE-M DEB (TANK) 2.6 18:24:58 10° NW 18:27:18 42° NNE 18:27:36 41° NE
Okean 1-7 3.1 18:24:30 10° S 18:28:53 80° W 18:33:19 10° N
ALOS 2.1 18:28:13 10° SSE 18:32:52 76° ENE 18:37:33 10° N
Cosmos 1782 3.6 18:30:53 10° SSW 18:34:48 52° W 18:38:44 10° N
Cosmos 405 Rocket 2.5 18:32:04 10° S 18:35:50 78° E 18:36:33 56° NNE
FengYun 1-2 T 4.3 18:39:44 18° SE 18:43:38 52° ENE 18:49:02 10° N
Cosmos 1513 Rocket 4.5 18:40:31 10° S 18:46:50 84° W 18:53:05 10° N
CZ-4C R/B 2.8 18:46:10 10° NW 18:53:18 76° NE 18:58:04 27° SE
COSMO-SKYMED 1 3.4 18:50:33 11° N 18:54:30 50° WNW 18:58:42 10° SSW
Meteor 1-5 Rocket 4.0 18:49:29 10° N 18:54:42 59° ENE 18:54:42 59° ENE
Meteor 1-27 Rocket 3.7 18:50:00 10° S 18:55:54 87° E 19:01:54 10° N
CENTAUR R/B 4.3 18:52:06 10° W 18:57:20 25° NNW 19:01:56 14° NNE
FENGYUN 3A 3.9 18:52:25 10° S 18:57:49 70° WSW 19:03:13 10° NNW
SPOT 3 Rocket 4.4 18:58:52 10° S 19:03:56 51° W 19:09:01 10° NNW
USA 229 DEB 3.9 18:59:16 10° S 19:05:14 46° SE 19:05:14 46° SE
USA 229 4.0 18:59:23 10° S 19:05:17 45° SE 19:05:17 45° SE
Cosmos 1833 Rocket 4.3 19:06:58 10° NW 19:12:00 34° WSW 19:16:59 10° SSW
Nadezhda 4 Rocket 4.0 19:08:39 10° NNW 19:14:46 75° W 19:20:51 10° S
Cosmos 2369 Rocket 4.2 19:10:31 10° S 19:11:27 15° SSE 19:11:27 15° SSE
Cosmos 2278 Rocket 4.4 19:20:43 10° W 19:24:45 19° NW 19:28:47 10° N
Timation 2 Rocket 4.3 19:21:33 10° NNW 19:28:18 70° WSW 19:31:12 35° S
Cosmos 1092 Rocket 4.0 19:26:42 10° N 19:32:51 78° W 19:39:02 10° S
Lacrosse 5 4.2 19:46:14 10° NW 19:47:38 16° NNW 19:47:38 16° NNW
USA 234 3.5 19:58:41 63° NW 19:58:41 63° NW 20:04:43 10° WSW
